Weather History for KCXY - January, 2013

Change the Weather History Date:

Wednesday, January 9, 2013

  Actual Average Record
Temperature  
Mean Temperature 34 °F -  
Max Temperature 45 °F 37 °F 64 °F (1998)
Min Temperature 23 °F 23 °F -3 °F (1942)
Degree Days  
Heating Degree Days 31    
Moisture  
Dew Point 27 °F    
Average Humidity 84    
Maximum Humidity 100    
Minimum Humidity 48    
Precipitation  
Precipitation 0.00 in - - ()
Sea Level Pressure  
Sea Level Pressure 30.33 in    
Wind  
Wind Speed 1 mph (WNW)    
Max Wind Speed 12 mph    
Max Gust Speed -    
Visibility 4 miles    
Events      
Averages and records for this station are not official NWS values.
T = Trace of Precipitation, MM = Missing Value Source: NWS Daily Summary

Daily Weather History Graph

Daily Weather History Graph

Search for Another Location

Airport or City:

Trip Planner

Search our weather history database for the weather conditions in past years. The results will help you decide how hot, cold, wet, or windy it might be!

Date:

Astronomy

Jan. 09, 2013 Rise Set
Actual Time 7:29 AM EST 4:59 PM EST
Civil Twilight 6:59 AM EST 5:30 PM EST
Nautical Twilight 6:25 AM EST 6:03 PM EST
Astronomical Twilight 5:52 AM EST 6:36 PM EST
Moon 5:06 AM EST (1/9) 2:59 PM EST (1/9)
Length of Visible Light 10h 30m
Length of Day
9h 30m
Waning Crescent, 6% of the Moon is Illuminated
Jan 9
Waning Crescent
Jan 11
New
Jan 18
First Quarter
Jan 26
Full
Feb 3
Last Quarter

Hourly Weather History & Observations

Time (EST) Temp. Windchill Dew Point Humidity Pressure Visibility Wind Dir Wind Speed Gust Speed Precip Events Conditions
12:56 AM 26.1 °F - 21.9 °F 84% 30.39 in 3.0 mi Calm Calm - N/A   Clear
1:56 AM 25.0 °F - 23.0 °F 92% 30.39 in 3.0 mi Calm Calm - N/A   Clear
2:56 AM 25.0 °F - 21.9 °F 88% 30.38 in 4.0 mi Calm Calm - N/A   Clear
3:56 AM 25.0 °F - 23.0 °F 92% 30.37 in 3.0 mi Calm Calm - N/A   Clear
4:56 AM 23.0 °F - 21.9 °F 96% 30.37 in 3.0 mi Calm Calm - N/A   Clear
5:35 AM 23.0 °F - 21.2 °F 93% 30.34 in 2.5 mi Calm Calm - N/A   Clear
5:56 AM 24.1 °F - 21.9 °F 91% 30.36 in 4.0 mi Calm Calm - N/A   Clear
6:56 AM 23.0 °F - 21.9 °F 96% 30.37 in 3.0 mi Calm Calm - N/A   Clear
7:56 AM 25.0 °F - 23.0 °F 92% 30.38 in 3.0 mi Calm Calm - N/A   Clear
8:03 AM 24.8 °F - 24.8 °F 100% 30.36 in 2.5 mi Calm Calm - N/A   Clear
8:32 AM 26.6 °F - 24.8 °F 93% 30.35 in 3.0 mi Calm Calm - N/A   Clear
8:56 AM 28.0 °F - 26.1 °F 92% 30.36 in 3.0 mi Calm Calm - N/A   Clear
10:03 AM 32.0 °F - 28.4 °F 87% 30.36 in 2.5 mi Calm Calm - N/A   Clear
10:29 AM 33.8 °F - 30.2 °F 87% 30.35 in 3.0 mi Calm Calm - N/A   Mostly Cloudy
10:56 AM 34.0 °F - 30.0 °F 85% 30.35 in 3.0 mi Calm Calm - N/A   Overcast
11:56 AM 36.0 °F 32.1 °F 30.0 °F 79% 30.35 in 3.0 mi WNW 4.6 mph - N/A   Haze
12:56 PM 35.1 °F - 30.9 °F 85% 30.28 in 3.0 mi Calm Calm - 0.00 in   Overcast
1:56 PM 36.0 °F 32.1 °F 30.9 °F 82% 30.25 in 3.0 mi NNW 4.6 mph - N/A   Haze
2:56 PM 37.0 °F 34.5 °F 32.0 °F 82% 30.25 in 3.0 mi WNW 3.5 mph - N/A   Haze
3:56 PM 39.0 °F 35.7 °F 32.0 °F 76% 30.24 in 4.0 mi West 4.6 mph - N/A   Haze
4:56 PM 37.9 °F - 30.9 °F 76% 30.25 in 4.0 mi Calm Calm - N/A   Haze
5:56 PM 36.0 °F 31.1 °F 30.0 °F 79% 30.27 in 5.0 mi WNW 5.8 mph - N/A   Haze
6:56 PM 30.9 °F - 28.9 °F 92% 30.27 in 4.0 mi Calm Calm - N/A   Clear
7:56 PM 28.9 °F - 27.0 °F 92% 30.29 in 3.0 mi Calm Calm - N/A   Clear
9:56 PM 43.0 °F 36.8 °F 28.9 °F 58% 30.30 in 10.0 mi West 11.5 mph - N/A   Clear
10:56 PM 45.0 °F 39.7 °F 27.0 °F 49% 30.31 in 10.0 mi West 10.4 mph - N/A   Clear
11:56 PM 45.0 °F 39.7 °F 26.1 °F 48% 30.35 in 10.0 mi West 10.4 mph - N/A   Clear